Latest Coastal Weather Observations for Cape Grim

IDT60701

Issued at 11:11 am EST Friday 31 July 2015 (issued every 10 minutes, with the page automatically refreshed every 10 minutes)

About coastal observations | Map of coastal stations | Coastal observations for TAS | Marine services | Other Formats
Station Details ID: 091331 Name: CAPE GRIM Lat: -40.68 Lon: 144.69 Height: 86.0 m
Data from the previous 72 hours. | See also: Recent months at Cape Grim
Date/Time
EST
Temp

°C
Wind Pressure Rain
since 9am
mm
Weather Cloud Vis
km
Sea
Height
m
Swell
Dir
 
Speed
knots
Gust
knots
hPa Trend Height
m
Period
s
Dir
31/11:00am 9.2 WNW 18 25 1016.5 - 0.4 - Partly cloudy - - - - -
31/10:53am 8.6 WNW 15 25 1016.6 - 0.4 - Partly cloudy - - - - -
31/10:30am 8.4 WNW 20 28 1016.6 - 0.4 - Partly cloudy - - - - -
31/10:00am 9.6 W 19 24 1016.7 - 0.0 - Partly cloudy - - - - -
31/09:30am 8.6 W 20 27 1016.9 - 0.0 - Partly cloudy - - - - -
31/09:02am 7.8 WNW 20 30 1016.8 - 0.0 - Partly cloudy - - - - -
31/09:00am 7.7 WNW 21 30 1016.8 - 5.8 Rain Cloudy - - - - -
31/08:50am 9.2 W 15 25 1016.7 - 5.6 - Partly cloudy - - - - -
31/08:30am 8.4 W 16 24 1016.6 - 5.6 - Partly cloudy - - - - -
31/08:00am 9.0 W 13 20 1016.3 - 5.6 - Partly cloudy - - - - -
31/07:30am 8.9 W 15 22 1016.2 - 5.6 - Partly cloudy - - - - -
31/07:00am 8.8 W 16 24 1016.0 - 5.6 - Partly cloudy - - - - -
31/06:30am 8.8 W 17 25 1015.6 - 5.6 - Partly cloudy - - - - -
31/06:18am 9.0 W 15 25 1015.6 - 5.6 - Partly cloudy - - - - -
31/06:00am 8.5 WSW 13 21 1015.6 - 5.6 - Mostly cloudy - - - - -
31/05:31am 9.1 W 15 25 1015.5 - 5.6 - Partly cloudy - - - - -
31/05:30am 9.1 W 15 21 1015.6 - 5.6 - Partly cloudy - - - - -
31/05:00am 8.7 W 15 24 1015.3 - 5.6 - Partly cloudy - - - - -
31/04:32am 8.8 WSW 15 28 1015.0 - 5.6 - Partly cloudy - - - - -
31/04:30am 8.9 WSW 14 28 1015.1 - 5.6 - Partly cloudy - - - - -
31/04:00am 8.8 WSW 15 29 1015.0 - 5.6 - Partly cloudy - - - - -
31/03:53am 8.6 WSW 15 27 1014.9 - 5.6 - Partly cloudy - - - - -
31/03:30am 8.2 WSW 18 26 1015.0 - 5.6 - Partly cloudy - - - - -
31/03:25am 8.5 WSW 16 26 1015.0 - 5.6 - Partly cloudy - - - - -
31/03:00am 8.5 W 15 23 1015.0 - 5.6 - Cloudy - - - - -
31/02:30am 8.7 SW 16 31 1014.7 - 5.6 - Partly cloudy - - - - -
31/02:00am 9.0 SW 21 35 1014.3 - 5.6 - Partly cloudy - - - - -
31/01:52am 9.2 SW 20 30 1014.3 - 5.6 - Partly cloudy - - - - -
31/01:30am 9.0 SW 24 32 1014.2 - 5.6 - Partly cloudy - - - - -
31/01:00am 8.6 WSW 17 27 1014.0 - 5.6 - Partly cloudy - - - - -
31/12:49am 8.3 WSW 18 29 1013.9 - 5.6 - Partly cloudy - - - - -
31/12:30am 8.5 SW 25 39 1013.6 - 5.2 - Partly cloudy - - - - -
31/12:29am 8.6 SW 25 35 1013.6 - 5.2 - Partly cloudy - - - - -
31/12:00am 8.7 SW 21 34 1013.4 - 5.2 - Mostly cloudy - - - - -
 
Date/Time
EST
Temp

°C
Wind Pressure Rain
since 9am
mm
Weather Cloud Vis
km
Sea
Height
m
Swell
Dir
 
Speed
knots
Gust
knots
hPa Trend Height
m
Period
s
Dir
30/11:49pm 8.7 SW 26 36 1013.2 - 5.2 - Partly cloudy - - - - -
30/11:30pm 8.4 SW 28 34 1013.2 - 5.2 - Partly cloudy - - - - -
30/11:08pm 7.7 SW 23 42 1013.1 - 5.2 - Partly cloudy - - - - -
30/11:07pm 7.9 SW 23 42 1013.0 - 5.2 - Partly cloudy - - - - -
30/11:05pm 7.8 SW 23 42 1013.0 - 5.2 - Partly cloudy - - - - -
30/11:01pm 7.6 SW 29 43 1013.1 - 5.2 - Partly cloudy - - - - -
30/11:00pm 7.5 SW 31 44 1013.1 - 5.2 - Partly cloudy - - - - -
30/10:51pm 9.0 SW 29 44 1012.6 - 5.2 - Partly cloudy - - - - -
30/10:30pm 8.6 SW 29 35 1012.2 - 5.2 - Partly cloudy - - - - -
30/10:09pm 8.8 SW 32 42 1011.6 - 5.2 - Partly cloudy - - - - -
30/10:00pm 9.1 SW 33 40 1011.6 - 5.2 - - - - - - -
30/09:30pm 9.3 SW 33 41 1010.6 - 5.2 - Partly cloudy - - - - -
30/09:03pm 9.4 SW 35 45 1010.0 - 5.2 - Partly cloudy - - - - -
30/09:00pm 9.3 SW 36 45 1009.8 - 5.2 - Partly cloudy - - - - -
30/08:36pm 9.3 SW 37 50 1009.1 - 5.2 - Partly cloudy - - - - -
30/08:30pm 9.7 SW 39 48 1008.9 - 5.2 - Partly cloudy - - - - -
30/08:04pm 9.1 SW 37 47 1007.9 - 5.2 - Partly cloudy - - - - -
30/08:00pm 8.9 SW 39 47 1007.6 - 5.2 - Partly cloudy - - - - -
30/07:41pm 8.6 SW 28 52 1006.8 - 5.0 - Partly cloudy - - - - -
30/07:39pm 9.4 WSW 25 47 1006.7 - 5.0 - Partly cloudy - - - - -
30/07:30pm 9.6 W 22 37 1006.1 - 5.0 - Partly cloudy - - - - -
30/07:19pm 8.9 W 23 43 1006.3 - 4.8 - Partly cloudy - - - - -
30/07:14pm 9.8 W 22 32 1006.1 - 4.4 - Partly cloudy - - - - -
30/07:00pm 9.7 W 23 31 1006.2 - 4.4 - Partly cloudy - - - - -
30/06:55pm 9.6 W 21 31 1006.4 - 4.4 - Partly cloudy - - - - -
30/06:30pm 9.0 W 19 26 1005.9 - 4.4 - Partly cloudy - - - - -
30/06:02pm 8.9 WSW 23 45 1005.5 - 3.4 - Partly cloudy - - - - -
30/06:00pm 9.0 WSW 23 35 1005.6 - 3.4 Rain Mostly cloudy - - - - -
30/05:59pm 9.1 W 23 35 1005.6 - 3.4 - Partly cloudy - - - - -
30/05:49pm 8.7 W 31 45 1004.9 - 2.8 - Partly cloudy - - - - -
30/05:45pm 9.2 WNW 35 45 1004.5 - 2.4 - Partly cloudy - - - - -
30/05:35pm 8.3 NW 33 49 1004.3 - 2.0 - Partly cloudy - - - - -
30/05:30pm 10.2 NW 30 43 1003.9 - 0.8 - Partly cloudy - - - - -
30/05:00pm 9.8 NW 33 46 1004.3 - 0.6 - Partly cloudy - - - - -
30/04:30pm 9.9 NW 31 43 1004.6 - 0.6 - Partly cloudy - - - - -
30/04:00pm 10.7 NW 34 48 1005.0 - 0.2 - Partly cloudy - - - - -
30/03:30pm 11.0 NNW 35 45 1005.1 - 0.2 - Partly cloudy - - - - -
30/03:00pm 10.7 NNW 32 42 1005.6 - 0.2 Recent precip. Cloudy - - - - -
30/02:53pm 10.6 NNW 32 42 1005.8 - 0.2 - Cloudy - - - - -
30/02:30pm 10.2 NNW 36 45 1006.4 - 0.2 - Partly cloudy - - - - -
30/02:00pm 10.6 NNW 35 50 1007.2 - 0.0 - Partly cloudy - - - - -
30/01:40pm 10.5 NNW 31 41 1007.3 - 0.0 - Cloudy - - - - -
30/01:30pm 10.6 NNW 30 39 1007.4 - 0.0 - Partly cloudy - - - - -
30/01:00pm 10.7 NNW 31 41 1008.6 - 0.0 - Partly cloudy - - - - -
30/12:37pm 10.6 NNW 29 39 1009.0 - 0.0 - Partly cloudy - - - - -
30/12:30pm 10.5 NNW 30 36 1009.2 - 0.0 - Partly cloudy - - - - -
30/12:00pm 10.9 NNW 31 42 1010.2 - 0.0 - Cloudy - - - - -
30/11:35am 11.1 NNW 30 40 1011.0 - 0.0 - Partly cloudy - - - - -
30/11:30am 11.1 NNW 31 40 1011.1 - 0.0 - Partly cloudy - - - - -
30/11:02am 11.1 NNW 32 42 1011.8 - 0.0 - Partly cloudy - - - - -
30/11:00am 11.0 NNW 31 40 1011.9 - 0.0 - Partly cloudy - - - - -
30/10:38am 11.4 NNW 30 40 1012.3 - 0.0 - Partly cloudy - - - - -
30/10:30am 11.2 NNW 32 41 1012.5 - 0.0 - Partly cloudy - - - - -
30/10:00am 11.0 NNW 30 40 1012.9 - 0.0 - Cloudy - - - - -
30/09:43am 11.1 NNW 30 40 1013.4 - 0.0 - Partly cloudy - - - - -
30/09:30am 11.1 NNW 31 39 1013.9 - 0.0 - - - - - - -
30/09:00am 10.9 NNW 29 39 1014.2 - 2.4 - Cloudy - - - - -
30/08:32am 10.7 NNW 27 37 1014.6 - 2.4 - Cloudy - - - - -
30/08:30am 10.7 NNW 27 35 1014.7 - 2.4 - Cloudy - - - - -
30/08:17am 10.6 NNW 24 34 1015.0 - 2.4 - Cloudy - - - - -
30/08:00am 10.5 NNW 25 32 1015.2 - 2.4 - Cloudy - - - - -
30/07:36am 10.5 NNW 25 36 1015.2 - 2.4 - Cloudy - - - - -
30/07:30am 10.6 NNW 27 35 1015.2 - 2.4 - Cloudy - - - - -
30/07:00am 10.5 NNW 28 35 1015.7 - 2.4 - Partly cloudy - - - - -
30/06:30am 10.4 NNW 27 33 1016.0 - 2.4 - Cloudy - - - - -
30/06:00am 10.4 NNW 28 34 1016.4 - 2.4 - Cloudy - - - - -
30/05:30am 10.3 NNW 26 34 1017.1 - 2.4 - Cloudy - - - - -
30/05:00am 10.5 NNW 27 32 1017.5 - 2.4 - Partly cloudy - - - - -
30/04:30am 10.4 NNW 24 30 1018.1 - 2.4 - - - - - - -
30/04:00am 10.4 NNW 25 31 1018.5 - 2.4 - Partly cloudy - - - - -
30/03:30am 10.5 NNW 26 31 1019.0 - 2.4 - Partly cloudy - - - - -
30/03:00am 10.3 NNW 25 32 1019.5 - 2.4 - Cloudy - - - - -
30/02:30am 10.3 NNW 24 30 1019.8 - 2.4 - Partly cloudy - - - - -
30/02:00am 10.5 NNW 27 33 1020.2 - 2.4 - Partly cloudy - - - - -
30/01:30am 10.6 NNW 25 32 1020.4 - 2.4 - Cloudy - - - - -
30/01:00am 10.7 NNW 25 31 1020.7 - 2.4 - Cloudy - - - - -
30/12:30am 10.9 NNW 25 31 1021.3 - 2.4 - Cloudy - - - - -
30/12:00am 10.9 NNW 27 32 1022.0 - 2.4 - Cloudy - - - - -
 
Date/Time
EST
Temp

°C
Wind Pressure Rain
since 9am
mm
Weather Cloud Vis
km
Sea
Height
m
Swell
Dir
 
Speed
knots
Gust
knots
hPa Trend Height
m
Period
s
Dir
29/11:30pm 10.8 NNW 25 30 1022.4 - 2.4 - Partly cloudy - - - - -
29/11:00pm 11.0 NNW 25 31 1022.6 - 2.4 - Partly cloudy - - - - -
29/10:30pm 11.0 NNW 26 31 1023.1 - 2.4 - Partly cloudy - - - - -
29/10:00pm 11.0 NNW 25 30 1023.3 - 2.4 - Cloudy - - - - -
29/09:30pm 11.0 NNW 25 29 1023.6 - 2.4 - Partly cloudy - - - - -
29/09:00pm 11.0 NNW 25 31 1023.7 - 2.4 - Cloudy - - - - -
29/08:30pm 11.1 NNW 21 27 1024.0 - 2.4 - Partly cloudy - - - - -
29/08:00pm 11.1 NW 21 29 1024.2 - 2.4 - Cloudy - - - - -
29/07:30pm 11.1 NW 20 29 1024.3 - 2.4 - Partly cloudy - - - - -
29/07:00pm 11.0 NW 20 28 1024.3 - 2.4 - Partly cloudy - - - - -
29/06:30pm 11.2 NW 19 27 1024.1 - 2.4 - Partly cloudy - - - - -
29/06:00pm 11.3 NW 21 28 1024.2 - 2.4 - Cloudy - - - - -
29/05:37pm 11.1 NW 20 30 1024.2 - 2.4 - Partly cloudy - - - - -
29/05:30pm 11.2 NW 20 26 1024.2 - 2.4 - Partly cloudy - - - - -
29/05:00pm 11.2 NW 17 22 1024.4 - 2.4 - Partly cloudy - - - - -
29/04:30pm 11.3 NW 21 27 1024.7 - 2.4 - Partly cloudy - - - - -
29/04:00pm 11.5 WNW 21 30 1024.8 - 2.4 - Partly cloudy - - - - -
29/03:30pm 11.4 WNW 23 29 1025.1 - 2.4 - Partly cloudy - - - - -
29/03:00pm 11.2 WNW 19 26 1025.5 - 2.4 Recent precip. Cloudy - - - - -
29/02:30pm 10.7 NW 18 26 1025.7 - 2.4 - Partly cloudy - - - - -
29/02:15pm 9.9 WNW 19 27 1026.0 - 2.2 - Partly cloudy - - - - -
29/02:00pm 10.7 NW 21 30 1026.0 - 1.8 - Partly cloudy - - - - -
29/01:57pm 11.1 NW 19 30 1026.1 - 1.8 - Partly cloudy - - - - -
29/01:30pm 11.6 WNW 18 24 1026.5 - 1.8 - Partly cloudy - - - - -
29/01:00pm 11.5 WNW 17 24 1027.2 - 1.8 - Partly cloudy - - - - -
29/12:53pm 11.2 NW 16 21 1027.3 - 1.8 - Partly cloudy - - - - -
29/12:42pm 11.0 NW 15 21 1027.5 - 1.8 - Partly cloudy - - - - -
29/12:30pm 11.1 NW 15 22 1027.6 - 1.8 - Partly cloudy - - - - -
29/12:10pm 10.8 NW 15 19 1028.0 - 1.8 - Partly cloudy - - - - -
29/12:00pm 10.2 NW 17 23 1028.3 - 1.8 Rain Cloudy - - - - -
29/11:42am 10.4 NW 15 20 1028.6 - 0.8 - Partly cloudy - - - - -
29/11:30am 10.8 NW 15 23 1028.7 - 0.4 - Partly cloudy - - - - -
29/11:00am 11.2 NW 14 20 1029.1 - 0.4 - Partly cloudy - - - - -
29/10:30am 11.1 NW 15 21 1029.2 - 0.4 - Partly cloudy - - - - -
29/10:09am 10.3 NW 15 25 1029.4 - 0.4 - Partly cloudy - - - - -
29/10:00am 10.8 NW 16 20 1029.5 - 0.0 - Partly cloudy - - - - -
29/09:30am 11.0 NW 12 15 1029.5 - 0.0 - Partly cloudy - - - - -
29/09:00am 10.5 WNW 11 14 1029.6 - 0.8 - Mostly cloudy - - - - -
29/08:30am 10.1 NW 14 18 1029.8 - 0.8 - Partly cloudy - - - - -
29/08:00am 10.3 NW 13 16 1030.0 - 0.8 - Partly cloudy - - - - -
29/07:30am 9.9 WNW 13 18 1029.7 - 0.8 - Partly cloudy - - - - -
29/07:00am 9.7 NW 11 15 1029.6 - 0.8 - Partly cloudy - - - - -
29/06:30am 9.9 WNW 14 18 1029.6 - 0.8 - Partly cloudy - - - - -
29/06:00am 9.3 WNW 13 18 1029.5 - 0.6 Rain Cloudy - - - - -
29/05:30am 10.1 WNW 13 17 1029.5 - 0.4 - Partly cloudy - - - - -
29/05:00am 10.0 WNW 14 19 1029.5 - 0.4 - Partly cloudy - - - - -
29/04:30am 9.8 WNW 14 17 1029.5 - 0.4 - Partly cloudy - - - - -
29/04:00am 9.9 WNW 13 17 1029.6 - 0.4 - Partly cloudy - - - - -
29/03:30am 9.6 WNW 11 15 1029.7 - 0.4 - - - - - - -
29/03:00am 9.0 WNW 10 14 1029.9 - 0.4 - Cloudy - - - - -
29/02:30am 9.8 WNW 12 16 1030.2 - 0.4 - Partly cloudy - - - - -
29/02:00am 8.6 WNW 6 8 1030.3 - 0.4 - Partly cloudy - - - - -
29/01:30am 8.8 NW 7 9 1030.5 - 0.4 - Partly cloudy - - - - -
29/01:00am 9.4 W 11 16 1030.4 - 0.4 - Partly cloudy - - - - -
29/12:30am 9.2 WNW 12 15 1030.8 - 0.4 - Partly cloudy - - - - -
29/12:00am 9.9 W 13 18 1030.9 - 0.4 - Partly cloudy - - - - -
 
Date/Time
EST
Temp

°C
Wind Pressure Rain
since 9am
mm
Weather Cloud Vis
km
Sea
Height
m
Swell
Dir
 
Speed
knots
Gust
knots
hPa Trend Height
m
Period
s
Dir
28/11:30pm 9.7 W 8 12 1031.0 - 0.4 - Partly cloudy - - - - -
28/11:00pm 9.4 W 11 15 1030.9 - 0.4 - Partly cloudy - - - - -
28/10:48pm 9.4 W 7 9 1030.9 - 0.4 - Partly cloudy - - - - -
28/10:30pm 9.5 W 12 18 1031.2 - 0.4 - Partly cloudy - - - - -
28/10:00pm 10.1 W 12 18 1031.1 - 0.0 - Partly cloudy - - - - -
28/09:30pm 9.4 W 13 19 1031.1 - 0.0 - Partly cloudy - - - - -
28/09:00pm 10.5 W 10 17 1031.1 - 0.0 - Cloudy - - - - -
28/08:30pm 10.0 WSW 12 19 1031.0 - 0.0 - Partly cloudy - - - - -
28/08:00pm 10.4 W 13 19 1030.9 - 0.0 - Partly cloudy - - - - -
28/07:30pm 10.6 W 16 30 1030.7 - 0.0 - Partly cloudy - - - - -
28/07:28pm 10.8 W 15 25 1030.7 - 0.0 - Partly cloudy - - - - -
28/07:00pm 10.7 W 15 22 1030.7 - 0.0 - Partly cloudy - - - - -
28/06:30pm 10.7 W 14 20 1030.7 - 0.0 - Partly cloudy - - - - -
28/06:00pm 10.6 W 14 21 1030.7 - 0.0 - Mostly cloudy - - - - -
28/05:30pm 10.4 W 15 24 1030.5 - 0.0 - Partly cloudy - - - - -
28/05:00pm 10.8 W 14 20 1030.3 - 0.0 - Partly cloudy - - - - -
28/04:30pm 10.7 W 13 22 1030.3 - 0.0 - Partly cloudy - - - - -
28/04:00pm 11.0 W 15 24 1030.0 - 0.0 - Partly cloudy - - - - -
28/03:30pm 11.1 W 15 22 1030.0 - 0.0 - - - - - - -
28/03:00pm 10.7 W 15 27 1029.8 - 0.0 - Cloudy - - - - -
28/02:58pm 11.0 W 16 27 1029.8 - 0.0 - Partly cloudy - - - - -
28/02:30pm 10.8 W 16 24 1029.8 - 0.0 - Partly cloudy - - - - -
28/02:00pm 10.9 W 17 26 1029.8 - 0.0 - Partly cloudy - - - - -
28/01:43pm 11.3 W 17 27 1029.9 - 0.0 - Partly cloudy - - - - -
28/01:30pm 11.2 W 17 25 1030.0 - 0.0 - Partly cloudy - - - - -
28/01:17pm 11.3 W 18 28 1030.0 - 0.0 - Partly cloudy - - - - -
28/01:00pm 11.1 W 16 24 1030.2 - 0.0 - Partly cloudy - - - - -
28/12:30pm 10.6 WSW 17 29 1030.3 - 0.0 - Partly cloudy - - - - -
28/12:00pm 10.7 W 17 28 1030.5 - 0.0 - Partly cloudy - - - - -
28/11:30am 11.4 W 17 29 1030.6 - 0.0 - Partly cloudy - - - - -

Other Formats:

Comma delimited format used in spreadsheet applications
http://www.bom.gov.au/fwo/IDT60701/IDT60701.95954.axf

JavaScript Object Notation format (JSON) in row-major order
http://www.bom.gov.au/fwo/IDT60701/IDT60701.95954.json